Regional Weather Roundup
Issued by NWS Boston, MA

Current Version | Previous Version | Text Only | Print | Product List | Glossary Off
Versions: 1 2 3 4 5 6 7 8 9 10 11 12 13 14 15 16 17 18 19 20 21 22 23 24 25 26 27 28 29

000
ASUS41 KBOX 270210
RWRBOX

REGIONAL WEATHER ROUNDUP
NATIONAL WEATHER SERVICE TAUNTON MA
1000 PM EDT SUN MAR 26 2017

NOTE:  "FAIR" INDICATES FEW OR NO CLOUDS BELOW 12,000 FEET WITH NO
SIGNIFICANT WEATHER AND/OR OBSTRUCTIONS TO VISIBILITY.

MAZALL-270300-
EASTERN MASSACHUSETTS

CITY           SKY/WX    TMP DP  RH WIND       PRES   REMARKS
BOSTON         LGT RAIN  37  31  78 SE13      30.44F WCI  29
BEVERLY        CLOUDY    37  28  70 SE9       30.43F WCI  30
LAWRENCE       LGT RAIN  34  28  79 E3        30.45F
BEDFORD        CLOUDY    36  27  69 SE8       30.42F WCI  30
BLUE HILL        N/A     34  27  75 E10       30.39F WCI  26
NORWOOD        CLOUDY    38  29  70 SE5       30.43F
MARSHFIELD     CLOUDY    39  30  70 SE8G14    30.43F
PLYMOUTH       CLOUDY    36  31  82 E7        30.42F WCI  30
TAUNTON        CLOUDY    37  30  75 E3        30.42F
NEW BEDFORD    CLOUDY    38  29  70 E9        30.41F WCI  31
$$

MAZALL-270300-
CAPE COD AND THE ISLANDS

CITY           SKY/WX    TMP DP  RH WIND       PRES   REMARKS
FALMOUTH       LGT RAIN  36  32  87 MISG      30.43F
HYANNIS        LGT RAIN  38  30  73 E8        30.41F
CHATHAM        CLOUDY    39  28  64 E8        30.44F
PROVINCETOWN   CLOUDY    38  29  70 SE8       30.44F
NANTUCKET      LGT RAIN  37  31  78 E9        30.42F WCI  30
MARTHAS VNYRD  CLOUDY    38  32  79 E9        30.41F WCI  31
$$

MAZALL-270300-
CENTRAL AND WESTERN MASSACHUSETTS

CITY           SKY/WX    TMP DP  RH WIND       PRES   REMARKS
WORCESTER      CLOUDY    33  26  75 E7        30.37F WCI  27
FITCHBURG      CLOUDY    35  28  75 E3        30.42S
ORANGE         CLOUDY    35  28  75 S6        30.40S WCI  30
SPRINGFIELD    CLOUDY    38  28  68 VRB5      30.39R
WESTFIELD      CLOUDY    37  31  78 S3        30.39S
NORTH ADAMS    CLOUDY    37  28  70 E18       30.34F WCI  27
PITTSFIELD     CLOUDY    34  28  79 SE5       30.32S WCI  30
$$

RIZALL-270300-
RHODE ISLAND

CITY           SKY/WX    TMP DP  RH WIND       PRES   REMARKS
PROVIDENCE     CLOUDY    38  28  67 E7        30.41F
NEWPORT        CLOUDY    36  32  85 E8        30.40F WCI  30
BLOCK ISLAND   CLOUDY    38  33  82 E12       30.39F WCI  30
SMITHFIELD     CLOUDY    35  29  78 E8        30.40F WCI  29
WESTERLY       CLOUDY    39  32  76 E10       30.40F
$$

CTZALL-270300-
CONNECTICUT

CITY           SKY/WX    TMP DP  RH WIND       PRES   REMARKS
BRADLEY INTL   CLOUDY    38  30  73 SE5       30.40S
HARTFORD       CLOUDY    39  29  67 CALM      30.40S
BRIDGEPORT     CLOUDY    39  34  82 E13       30.39S WCI  31
DANBURY        CLOUDY    36  33  89 E9        30.37F WCI  29
GROTON         CLOUDY    39  31  72 E13       30.38F WCI  31
NEW HAVEN      CLOUDY    38  32  79 E9        30.39S WCI  31
CHESTER        NOT AVBL
MERIDEN        CLOUDY    39  30  70 CALM      30.40R
WILLIMANTIC    CLOUDY    39  29  67 E3        30.40F
OXFORD         CLOUDY    36  27  69 E5        30.37F WCI  32
$$

MEZ002-015-021-024-NHZ003-005-008-011-012-014-VTZ005-008-270300-
NORTHERN NEW ENGLAND

CITY           SKY/WX    TMP DP  RH WIND       PRES   REMARKS
PORTLAND ME    CLOUDY    34  24  67 S3        30.45F
BANGOR ME      CLOUDY    30  19  63 S6        30.46F WCI  24
CONCORD NH     MIX PCPN  34  26  72 CALM      30.42F
MANCHESTER NH  NOT AVBL
NASHUA NH      NOT AVBL
PORTSMOUTH NH  CLOUDY    35  26  69 E7        30.42F WCI  29
JAFFREY NH     CLOUDY    32  26  78 VRB3      30.38S
KEENE NH       NOT AVBL
BURLINGTON VT  CLOUDY    36  29  75 S13       30.27F WCI  27
MT. WASHINGTON FOG       34  34 100 SW32        N/A  VSB 0   WCI  20
$$

NYZ052-076-270300-
EASTERN NEW YORK

CITY           SKY/WX    TMP DP  RH WIND       PRES   REMARKS
ALBANY         CLOUDY    37  30  75 S10       30.35S WCI  30
NEW YORK CITY  DRIZZLE   41  37  86 NE14      30.35F FOG
$$

ANZALL-270300-
MARINE OBSERVATIONS

STATION/POSITION TIME  TEMP    WIND        PRES    VSBY  WAVE
                       AIR SEA DIR/SP/G                  HT/PER
                 (UTC) (F)     (DEG/KT/KT) (MB)    (MI)  (FT/S)
BOSTON BUOY      0150   38 40  110/ 14/ 16 1029.8F         3/ 7
BUZZARDS BAY     0100   37      80/ 13/ 15 1030.9F
NANTUCKET SOUND  0150      39              1030.0F         2/ 4
MASS BAY-STELLWA 0104   38 39  120/ 10/ 12 1030.3F         3/ 6
ISLE OF SHOALS   0200   36     120/ 14/ 16 1030.3F
S OF BLOCK IS    0155      40                N/A           5/ 6
$$

......................KEY.........................
  SKY/WX - SKY CONDITION/PRESENT WEATHER
  TMP    - TEMPERATURE IN FAHRENHEIT
  DWPT   - DEWPOINT IN FAHRENHEIT
  RH     - RELATIVE HUMIDITY IN PERCENT
  WIND   - DIRECTION AND SPEED IN MPH
  PRES   - MEAN SEA LEVEL PRESSURE IN INCHES OF HG
  WCI    - WIND CHILL INDEX
  VSB    - VISIBILITY IN MILES
  HX     - HEAT INDEX
  TC     - TEMPERATURE IN CELSIUS
  VRB    - VARIABLE WIND DIRECTION
  N/A    - NOT AVAILABLE




USA.gov is the U.S. government's official web portal to all federal, state and local government web resources and services.